Simultaneous Nadir Overpasses (SNOs) Predictions

Prediction of SNOs between GOES-14 and AQUA Satellite Orbit:

Table of predicted SNOs for the next 14.0 days since TLE Epoch: 10/31/2020
Index Date Time (GOES-14) GOES-14 Lat,Lon AQUA Lat,Lon Distance(km) Time Diff (sec)
1 11/01/2020 08:35:37 0.10,-104.39 0.19,-104.68 33.73 80
2 11/03/2020 08:20:46 0.11,-104.38 -0.46,-101.73 301.43 80
3 11/03/2020 20:42:09 -0.08,-104.23 -0.69,-106.91 305.82 80
4 11/05/2020 20:32:38 -0.09,-104.22 -0.03,-103.96 29.37 80
5 11/07/2020 20:20:26 -0.09,-104.21 0.57,-101.00 364.60 80
6 11/08/2020 08:41:44 0.06,-104.38 0.41,-106.18 204.61 80
7 11/10/2020 08:26:52 0.07,-104.36 -0.19,-103.22 130.09 80
8 11/10/2020 20:48:15 -0.04,-104.17 -0.95,-108.40 481.31 80
9 11/12/2020 08:14:40 0.07,-104.35 -0.79,-100.26 465.04 80
10 11/12/2020 20:36:03 -0.04,-104.16 -0.34,-105.44 145.79 80
